Time,TemperatureF,DewpointF,PressureIn,WindDirection,WindDirectionDegrees,WindSpeedMPH,WindSpeedGustMPH,Humidity,HourlyPrecipIn,Conditions,Clouds,dailyrainin,SoftwareType,DateUTC
2013-04-02 00:00:00,68.0,67.0,29.98,East,100,10.0,11.0,96,-99.99,,,-99.99,,2013-04-02 05:00:00,
2013-04-02 00:22:00,68.0,67.0,29.98,East,100,10.0,11.0,96,-99.99,,,-99.99,,2013-04-02 05:22:00,
2013-04-02 00:31:00,68.0,67.0,29.98,East,100,10.0,11.0,96,-99.99,,,-99.99,,2013-04-02 05:31:00,
2013-04-02 00:42:00,68.0,67.0,29.98,East,100,10.0,11.0,96,-99.99,,,-99.99,,2013-04-02 05:42:00,
2013-04-02 00:52:00,68.0,67.0,29.98,East,100,10.0,11.0,96,-99.99,,,-99.99,,2013-04-02 05:52:00,
2013-04-02 01:00:00,68.0,67.0,30.00,East,90,3.0,3.0,96,-99.99,,,-99.99,,2013-04-02 06:00:00,
2013-04-02 01:21:00,68.0,67.0,30.00,East,90,3.0,3.0,96,-99.99,,,-99.99,,2013-04-02 06:21:00,
2013-04-02 01:31:00,68.0,67.0,30.00,East,90,3.0,3.0,96,-99.99,,,-99.99,,2013-04-02 06:31:00,
2013-04-02 01:41:00,68.0,67.0,30.00,East,90,3.0,3.0,96,-99.99,,,-99.99,,2013-04-02 06:41:00,
2013-04-02 01:52:00,68.0,67.0,30.00,East,90,3.0,3.0,96,-99.99,,,-99.99,,2013-04-02 06:52:00,
2013-04-02 02:00:00,68.0,67.0,29.95,ENE,70,7.0,9.0,96,-99.99,,,-99.99,,2013-04-02 07:00:00,
2013-04-02 02:21:00,68.0,67.0,29.95,ENE,70,7.0,9.0,96,-99.99,,,-99.99,,2013-04-02 07:21:00,
2013-04-02 02:31:00,68.0,67.0,29.95,ENE,70,7.0,9.0,96,-99.99,,,-99.99,,2013-04-02 07:31:00,
2013-04-02 02:41:00,68.0,67.0,29.95,ENE,70,7.0,9.0,96,-99.99,,,-99.99,,2013-04-02 07:41:00,
2013-04-02 02:52:00,68.0,67.0,29.95,ENE,70,7.0,9.0,96,-99.99,,,-99.99,,2013-04-02 07:52:00,
2013-04-02 03:00:00,68.0,67.0,29.93,East,80,11.0,13.0,96,-99.99,,,-99.99,,2013-04-02 08:00:00,
2013-04-02 03:21:00,68.0,67.0,29.93,East,80,11.0,13.0,96,-99.99,,,-99.99,,2013-04-02 08:21:00,
2013-04-02 03:31:00,68.0,67.0,29.93,East,80,11.0,13.0,96,-99.99,,,-99.99,,2013-04-02 08:31:00,
2013-04-02 03:41:00,68.0,67.0,29.93,East,80,11.0,13.0,96,-99.99,,,-99.99,,2013-04-02 08:41:00,
2013-04-02 03:51:00,68.0,67.0,29.93,East,80,11.0,13.0,96,-99.99,,,-99.99,,2013-04-02 08:51:00,
2013-04-02 04:00:00,69.0,67.0,29.89,ESE,110,18.0,20.0,96,-99.99,,,-99.99,,2013-04-02 09:00:00,
2013-04-02 04:21:00,69.0,67.0,29.89,ESE,110,18.0,20.0,96,-99.99,,,-99.99,,2013-04-02 09:21:00,
2013-04-02 04:32:00,69.0,67.0,29.89,ESE,110,18.0,20.0,96,-99.99,,,-99.99,,2013-04-02 09:32:00,
2013-04-02 04:42:00,69.0,67.0,29.89,ESE,110,18.0,20.0,96,-99.99,,,-99.99,,2013-04-02 09:42:00,
2013-04-02 04:52:00,69.0,67.0,29.89,ESE,110,18.0,20.0,96,-99.99,,,-99.99,,2013-04-02 09:52:00,
2013-04-02 05:00:00,68.0,67.0,29.89,ESE,120,10.0,11.0,96,-99.99,,,-99.99,,2013-04-02 10:00:00,
2013-04-02 05:22:00,68.0,67.0,29.89,ESE,120,10.0,11.0,96,-99.99,,,-99.99,,2013-04-02 10:22:00,
2013-04-02 05:32:00,68.0,67.0,29.89,ESE,120,10.0,11.0,96,-99.99,,,-99.99,,2013-04-02 10:32:00,
2013-04-02 05:41:00,68.0,67.0,29.89,ESE,120,10.0,11.0,96,-99.99,,,-99.99,,2013-04-02 10:41:00,
2013-04-02 05:52:00,68.0,67.0,29.89,ESE,120,10.0,11.0,96,-99.99,,,-99.99,,2013-04-02 10:52:00,
2013-04-02 06:00:00,68.0,67.0,29.91,SE,140,11.0,14.0,96,-99.99,,,-99.99,,2013-04-02 11:00:00,
2013-04-02 06:21:00,68.0,67.0,29.91,SE,140,11.0,14.0,96,-99.99,,,-99.99,,2013-04-02 11:21:00,
2013-04-02 06:32:00,68.0,67.0,29.91,SE,140,11.0,14.0,96,-99.99,,,-99.99,,2013-04-02 11:32:00,
2013-04-02 06:42:00,68.0,67.0,29.91,SE,140,11.0,14.0,96,-99.99,,,-99.99,,2013-04-02 11:42:00,
2013-04-02 06:52:00,68.0,67.0,29.91,SE,140,11.0,14.0,96,-99.99,,,-99.99,,2013-04-02 11:52:00,
2013-04-02 07:00:00,68.0,67.0,29.92,SSE,150,2.0,3.0,96,-99.99,,,-99.99,,2013-04-02 12:00:00,
2013-04-02 07:21:00,68.0,67.0,29.92,SSE,150,2.0,3.0,96,-99.99,,,-99.99,,2013-04-02 12:21:00,
2013-04-02 07:31:00,68.0,67.0,29.92,SSE,150,2.0,3.0,96,-99.99,,,-99.99,,2013-04-02 12:31:00,
2013-04-02 07:41:00,68.0,67.0,29.92,SSE,150,2.0,3.0,96,-99.99,,,-99.99,,2013-04-02 12:41:00,
2013-04-02 07:52:00,68.0,67.0,29.92,SSE,150,2.0,3.0,96,-99.99,,,-99.99,,2013-04-02 12:52:00,
2013-04-02 08:00:00,68.0,67.0,29.93,ENE,60,8.0,10.0,96,-99.99,,,-99.99,,2013-04-02 13:00:00,
2013-04-02 08:21:00,68.0,67.0,29.93,ENE,60,8.0,10.0,96,-99.99,,,-99.99,,2013-04-02 13:21:00,
2013-04-02 08:31:00,68.0,67.0,29.93,ENE,60,8.0,10.0,96,-99.99,,,-99.99,,2013-04-02 13:31:00,
2013-04-02 08:42:00,68.0,67.0,29.93,ENE,60,8.0,10.0,96,-99.99,,,-99.99,,2013-04-02 13:42:00,
2013-04-02 08:52:00,68.0,67.0,29.93,ENE,60,8.0,10.0,96,-99.99,,,-99.99,,2013-04-02 13:52:00,
2013-04-02 09:00:00,69.0,68.0,29.94,NNE,30,13.0,14.0,96,-99.99,,,-99.99,,2013-04-02 14:00:00,
2013-04-02 09:21:00,69.0,68.0,29.94,NNE,30,13.0,14.0,96,-99.99,,,-99.99,,2013-04-02 14:21:00,
2013-04-02 09:31:00,69.0,68.0,29.94,NNE,30,13.0,14.0,96,-99.99,,,-99.99,,2013-04-02 14:31:00,
2013-04-02 09:42:00,69.0,68.0,29.94,NNE,30,13.0,14.0,96,-99.99,,,-99.99,,2013-04-02 14:42:00,
2013-04-02 10:00:00,69.0,67.0,29.96,NNE,30,10.0,11.0,95,-99.99,,,-99.99,,2013-04-02 15:00:00,
2013-04-02 10:21:00,69.0,67.0,29.96,NNE,30,10.0,11.0,95,-99.99,,,-99.99,,2013-04-02 15:21:00,
2013-04-02 10:33:00,69.0,67.0,29.96,NNE,30,10.0,11.0,95,-99.99,,,-99.99,,2013-04-02 15:33:00,
2013-04-02 10:42:00,69.0,67.0,29.96,NNE,30,10.0,11.0,95,-99.99,,,-99.99,,2013-04-02 15:42:00,
2013-04-02 10:53:00,69.0,67.0,29.96,NNE,30,10.0,11.0,95,-99.99,,,-99.99,,2013-04-02 15:53:00,
2013-04-02 11:00:00,69.0,67.0,29.96,NE,40,11.0,13.0,94,-99.99,,,-99.99,,2013-04-02 16:00:00,
2013-04-02 11:22:00,69.0,67.0,29.96,NE,40,11.0,13.0,94,-99.99,,,-99.99,,2013-04-02 16:22:00,
2013-04-02 11:32:00,69.0,67.0,29.96,NE,40,11.0,13.0,94,-99.99,,,-99.99,,2013-04-02 16:32:00,
2013-04-02 11:42:00,69.0,67.0,29.96,NE,40,11.0,13.0,94,-99.99,,,-99.99,,2013-04-02 16:42:00,
2013-04-02 11:52:00,69.0,67.0,29.96,NE,40,11.0,13.0,94,-99.99,,,-99.99,,2013-04-02 16:52:00,
2013-04-02 12:00:00,68.0,66.0,29.96,NE,40,11.0,14.0,93,-99.99,,,-99.99,,2013-04-02 17:00:00,
2013-04-02 12:22:00,68.0,66.0,29.96,NE,40,11.0,14.0,93,-99.99,,,-99.99,,2013-04-02 17:22:00,
2013-04-02 12:32:00,68.0,66.0,29.96,NE,40,11.0,14.0,93,-99.99,,,-99.99,,2013-04-02 17:32:00,
2013-04-02 12:41:00,68.0,66.0,29.96,NE,40,11.0,14.0,93,-99.99,,,-99.99,,2013-04-02 17:41:00,
2013-04-02 12:52:00,68.0,66.0,29.96,NE,40,11.0,14.0,93,-99.99,,,-99.99,,2013-04-02 17:52:00,
2013-04-02 13:00:00,68.0,67.0,29.94,NE,50,13.0,14.0,95,-99.99,,,-99.99,,2013-04-02 18:00:00,
2013-04-02 13:21:00,68.0,67.0,29.94,NE,50,13.0,14.0,95,-99.99,,,-99.99,,2013-04-02 18:21:00,
2013-04-02 13:42:00,68.0,67.0,29.94,NE,50,13.0,14.0,95,-99.99,,,-99.99,,2013-04-02 18:42:00,
2013-04-02 13:52:00,68.0,67.0,29.94,NE,50,13.0,14.0,95,-99.99,,,-99.99,,2013-04-02 18:52:00,
2013-04-02 14:00:00,68.0,66.0,29.92,ENE,60,9.0,10.0,95,-99.99,,,-99.99,,2013-04-02 19:00:00,
2013-04-02 14:21:00,68.0,66.0,29.92,ENE,60,9.0,10.0,95,-99.99,,,-99.99,,2013-04-02 19:21:00,
2013-04-02 14:31:00,68.0,66.0,29.92,ENE,60,9.0,10.0,95,-99.99,,,-99.99,,2013-04-02 19:31:00,
2013-04-02 14:42:00,68.0,66.0,29.92,ENE,60,9.0,10.0,95,-99.99,,,-99.99,,2013-04-02 19:42:00,
2013-04-02 15:00:00,68.0,67.0,29.86,ENE,70,15.0,16.0,94,-99.99,,,-99.99,,2013-04-02 20:00:00,
2013-04-02 15:21:00,68.0,67.0,29.86,ENE,70,15.0,16.0,94,-99.99,,,-99.99,,2013-04-02 20:21:00,
2013-04-02 15:31:00,68.0,67.0,29.86,ENE,70,15.0,16.0,94,-99.99,,,-99.99,,2013-04-02 20:31:00,
2013-04-02 15:41:00,68.0,67.0,29.86,ENE,70,15.0,16.0,94,-99.99,,,-99.99,,2013-04-02 20:41:00,
2013-04-02 15:52:00,68.0,67.0,29.86,ENE,70,15.0,16.0,94,-99.99,,,-99.99,,2013-04-02 20:52:00,
2013-04-02 16:00:00,69.0,67.0,29.84,East,80,13.0,14.0,93,-99.99,,,-99.99,,2013-04-02 21:00:00,
2013-04-02 16:21:00,69.0,67.0,29.84,East,80,13.0,14.0,93,-99.99,,,-99.99,,2013-04-02 21:21:00,
2013-04-02 16:32:00,69.0,67.0,29.84,East,80,13.0,14.0,93,-99.99,,,-99.99,,2013-04-02 21:32:00,
2013-04-02 16:42:00,69.0,67.0,29.84,East,80,13.0,14.0,93,-99.99,,,-99.99,,2013-04-02 21:42:00,
2013-04-02 16:53:00,69.0,67.0,29.84,East,80,13.0,14.0,93,-99.99,,,-99.99,,2013-04-02 21:53:00,
2013-04-02 17:00:00,69.0,67.0,29.81,East,80,14.0,15.0,93,-99.99,,,-99.99,,2013-04-02 22:00:00,
2013-04-02 17:22:00,69.0,67.0,29.81,East,80,14.0,15.0,93,-99.99,,,-99.99,,2013-04-02 22:22:00,
2013-04-02 17:32:00,69.0,67.0,29.81,East,80,14.0,15.0,93,-99.99,,,-99.99,,2013-04-02 22:32:00,
2013-04-02 17:42:00,69.0,67.0,29.81,East,80,14.0,15.0,93,-99.99,,,-99.99,,2013-04-02 22:42:00,
2013-04-02 17:52:00,69.0,67.0,29.81,East,80,14.0,15.0,93,-99.99,,,-99.99,,2013-04-02 22:52:00,
2013-04-02 18:00:00,69.0,67.0,29.80,East,90,14.0,15.0,93,-99.99,,,-99.99,,2013-04-02 23:00:00,
2013-04-02 18:21:00,69.0,67.0,29.80,East,90,14.0,15.0,93,-99.99,,,-99.99,,2013-04-02 23:21:00,
2013-04-02 18:32:00,69.0,67.0,29.80,East,90,14.0,15.0,93,-99.99,,,-99.99,,2013-04-02 23:32:00,
2013-04-02 18:41:00,69.0,67.0,29.80,East,90,14.0,15.0,93,-99.99,,,-99.99,,2013-04-02 23:41:00,
2013-04-02 18:52:00,69.0,67.0,29.80,East,90,14.0,15.0,93,-99.99,,,-99.99,,2013-04-02 23:52:00,
2013-04-02 19:00:00,69.0,68.0,29.80,East,80,13.0,13.0,95,-99.99,,,-99.99,,2013-04-03 00:00:00,
2013-04-02 19:21:00,69.0,68.0,29.80,East,80,13.0,13.0,95,-99.99,,,-99.99,,2013-04-03 00:21:00,
2013-04-02 19:32:00,69.0,68.0,29.80,East,80,13.0,13.0,95,-99.99,,,-99.99,,2013-04-03 00:32:00,
2013-04-02 19:52:00,69.0,68.0,29.80,East,80,13.0,13.0,95,-99.99,,,-99.99,,2013-04-03 00:52:00,
2013-04-02 20:21:00,69.0,68.0,29.79,East,80,15.0,16.0,95,-99.99,,,-99.99,,2013-04-03 01:21:00,
2013-04-02 20:31:00,69.0,68.0,29.79,East,80,15.0,16.0,95,-99.99,,,-99.99,,2013-04-03 01:31:00,
2013-04-02 20:41:00,69.0,68.0,29.79,East,80,15.0,16.0,95,-99.99,,,-99.99,,2013-04-03 01:41:00,
2013-04-02 20:51:00,69.0,68.0,29.79,East,80,15.0,16.0,95,-99.99,,,-99.99,,2013-04-03 01:51:00,
2013-04-02 21:00:00,69.0,68.0,29.80,ENE,70,13.0,14.0,96,-99.99,,,-99.99,,2013-04-03 02:00:00,
2013-04-02 21:21:00,69.0,68.0,29.80,ENE,70,13.0,14.0,96,-99.99,,,-99.99,,2013-04-03 02:21:00,
2013-04-02 21:41:00,69.0,68.0,29.80,ENE,70,13.0,14.0,96,-99.99,,,-99.99,,2013-04-03 02:41:00,
2013-04-02 21:52:00,69.0,68.0,29.80,ENE,70,13.0,14.0,96,-99.99,,,-99.99,,2013-04-03 02:52:00,
2013-04-02 22:00:00,68.0,67.0,29.83,NNE,30,16.0,18.0,96,-99.99,,,-99.99,,2013-04-03 03:00:00,
2013-04-02 22:21:00,68.0,67.0,29.83,NNE,30,16.0,18.0,96,-99.99,,,-99.99,,2013-04-03 03:21:00,
2013-04-02 22:32:00,68.0,67.0,29.83,NNE,30,16.0,18.0,96,-99.99,,,-99.99,,2013-04-03 03:32:00,
2013-04-02 22:42:00,68.0,67.0,29.83,NNE,30,16.0,18.0,96,-99.99,,,-99.99,,2013-04-03 03:42:00,
2013-04-02 22:52:00,68.0,67.0,29.83,NNE,30,16.0,18.0,96,-99.99,,,-99.99,,2013-04-03 03:52:00,
2013-04-02 23:00:00,68.0,67.0,29.84,NE,40,18.0,20.0,97,-99.99,,,-99.99,,2013-04-03 04:00:00,
2013-04-02 23:23:00,68.0,67.0,29.84,NE,40,18.0,20.0,97,-99.99,,,-99.99,,2013-04-03 04:23:00,
2013-04-02 23:32:00,68.0,67.0,29.84,NE,40,18.0,20.0,97,-99.99,,,-99.99,,2013-04-03 04:32:00,
2013-04-02 23:42:00,68.0,67.0,29.84,NE,40,18.0,20.0,97,-99.99,,,-99.99,,2013-04-03 04:42:00,
2013-04-02 23:53:00,68.0,67.0,29.84,NE,40,18.0,20.0,97,-99.99,,,-99.99,,2013-04-03 04:53:00,